Home > Time Zones > World Clock > Weather > Latvia > Riga > Past weeks

Flag for Latvia Weather past 2 weeks in Riga, Latvia

Now
64 °F

Mild.


Feels Like: 64 °F
Forecast: 44 / 64 °F
Wind: N/A

Location: Riga Airport

Current Time: May 28, 2015 at 2:21:16 PM

Latest Report: May 28, 2015 at 1:50 PM


Visibility: N/A

Pressure: 29.83 "Hg

Humidity: 46%

Dew point: 43 °F

Location of RigaLocation

Historic Weather in Riga — Graph

°F

Riga temperature yesterday

Maximum temperature yesterday: 59 °F (at 2:20 PM)
Minimum temperature yesterday: 45 °F (at 4:50 AM)
Average temperature yesterday: 52 °F

Past Weeks' High & Low Weather Summary

 TemperatureHumidityPressure
High68 °F (May 25, 2:50 PM)100% (May 14, 10:20 AM)30.21 "Hg (May 14, 10:20 AM)
Low36 °F (May 17, 12:20 AM)39% (May 22, 1:20 PM)29.59 "Hg (May 14, 5:20 AM)
Average50 °F79%29.87 "Hg
* Reported May 13 1:20 PM — May 28 1:20 PM, Riga, Weather by CustomWeather, © 2015

Note: Actual official high and low records may vary slightly from our data, if they occured in-between our weather recording intervals... More about our weather records

Advertising

Riga weather history for previous 24 hours

 ConditionsComfort  
Time TempWeatherWind HumidityBarometerVisibility
1:20 PM
Thu, May 28
63 °FSunny.7 mph49%29.86 "Hg10 mi
12:50 PM63 °FPassing clouds.7 mph49%29.86 "HgN/A
12:20 PM63 °FPassing clouds.8 mph49%29.86 "HgN/A
11:50 AM61 °FPassing clouds.7 mph52%29.86 "HgN/A
11:20 AM59 °FPassing clouds.7 mph51%29.86 "HgN/A
10:50 AM61 °FPassing clouds.7 mph52%29.86 "HgN/A
10:20 AM59 °FSunny.5 mph59%29.86 "Hg10 mi
9:50 AM57 °FPassing clouds.5 mph67%29.86 "HgN/A
9:20 AM55 °FPassing clouds.6 mph72%29.86 "HgN/A
8:50 AM55 °FPassing clouds.5 mph72%29.83 "HgN/A
8:20 AM54 °FPassing clouds.3 mph77%29.83 "HgN/A
7:50 AM52 °FSunny.3 mph77%29.83 "Hg10 mi
7:20 AM48 °FPassing clouds.3 mph87%29.83 "HgN/A
6:20 AM43 °FSunny.2 mph100%29.83 "Hg10 mi
5:50 AM37 °FSunny.3 mph100%29.83 "Hg10 mi
5:20 AM39 °FClear.2 mph100%29.83 "Hg10 mi
4:50 AM37 °FLight fog.2 mph100%29.83 "HgN/A
4:20 AM43 °FPassing clouds.3 mph93%29.83 "HgN/A
3:50 AM43 °FClear.2 mph93%29.83 "Hg10 mi
3:20 AM45 °FPassing clouds.3 mph93%29.83 "HgN/A
2:50 AM45 °FPassing clouds.3 mph93%29.83 "HgN/A
2:20 AM43 °FPassing clouds.3 mph100%29.83 "HgN/A
1:50 AM45 °FClear.2 mph93%29.83 "Hg10 mi
1:20 AM45 °FClear.2 mph93%29.83 "Hg10 mi
12:50 AM46 °FClear.2 mph87%29.83 "Hg10 mi
12:20 AM48 °FClear.2 mph82%29.83 "Hg10 mi
11:50 PM
Wed, May 27
50 °FPassing clouds.5 mph76%29.83 "HgN/A
11:20 PM52 °FClear.6 mph72%29.83 "Hg10 mi
10:50 PM52 °FSunny.7 mph67%29.83 "Hg10 mi
10:20 PM54 °FPassing clouds.9 mph63%29.83 "HgN/A
9:50 PM54 °FPassing clouds.9 mph63%29.80 "HgN/A
9:20 PM54 °FSunny.10 mph63%29.80 "Hg10 mi
8:50 PM54 °FSunny.9 mph67%29.80 "Hg10 mi
8:20 PM54 °FPassing clouds.10 mph67%29.83 "HgN/A
7:50 PM54 °FSunny.13 mph67%29.83 "Hg10 mi
7:20 PM55 °FSunny.13 mph63%29.83 "Hg10 mi
6:50 PM55 °FSunny.12 mph67%29.80 "Hg10 mi
6:20 PM55 °FSunny.15 mph67%29.83 "Hg10 mi
5:50 PM55 °FSunny.15 mph67%29.83 "Hg10 mi
5:20 PM55 °FSunny.14 mph67%29.83 "Hg10 mi
4:50 PM55 °FSunny.14 mph63%29.83 "Hg10 mi
4:20 PM57 °FSunny.12 mph59%29.80 "Hg10 mi
3:50 PM57 °FSunny.13 mph59%29.83 "Hg10 mi
3:20 PM57 °FSunny.12 mph59%29.83 "Hg10 mi
2:50 PM59 °FSunny.12 mph55%29.83 "Hg10 mi
2:20 PM59 °FPassing clouds.10 mph51%29.83 "HgN/A
Weather by CustomWeather, © 2015

See weather overviewHow to use our weather pages